sat.trackr.live / text

‹ back to catalog

STARLINK-36249

NORAD 68532 · 2026-068AA

PAYLOAD ACTIVE UNKNOWN

§ Identity

Operator
Country
US
Launch date
2026-03-30
Launch site
AFETR
Launch vehicle
Mass (kg)
RCS (m²)

Purposes: comms

External: N2YO · Heavens-Above · Gunter

§ Orbital elements

Epoch: 2026-09-19T20:03:49.385664Z

Period
93.85 min
Inclination
53.1587°
Eccentricity
0.0001761
Mean motion
15.34400621 rev/d
Perigee alt
461.5 km
Apogee alt
463.9 km
Semi-major
6,840.8 km
B*
3.9852e-4
RAAN
302.9355°
Arg perigee
83.5714°
Mean anomaly
276.5489°
Rev number
2,673

§ Raw data

STARLINK-362491 68532U 26068AA  26262.83598826  .00013112  00000+0  39852-3 0  99902 68532  53.1587 302.9355 0001761  83.5714 276.5489 15.34400621 26730

JSON: /api/v1/satellites/68532 · /tle

For live sub-satellite position, see the globe view (requires WebGL).

§ Visibility from observer

Set your observer location to see the next 7 days of passes ≥ 10°. The values pass through the URL so the page stays shareable.

No JS? Fill the form by hand. The geolocation button needs JavaScript.